Helicity
-13 -11 -40 2 35 57 68 57 14 -3 -14 76 35 28 106 117 69 45 30 17 11 8 -41 -24 10 19 -8 -14 -14 17 29 38 60 73 85 92 96 80 109 142 141 138 147 155
-20 -5 -14 43 40 28 46 38 49 -8 24 30 24 56 79 114 62 51 96 53 15 -27 -43 -1 -2 21 39 55 41 43 53 106 120 150 161 142 134 132 162 159 154 144 166 181
-4 -26 44 32 40 32 53 67 29 24 15 64 68 74 59 30 -1 -11 -0 49 53 61 30 11 48 32 33 72 94 108 113 150 186 217 291 277 286 255 233 220 213 187 186 195
-13 -35 -2 83 55 22 82 -6 -9 38 42 17 50 21 25 44 42 23 70 49 48 46 53 74 119 78 54 74 81 96 150 213 230 278 310 328 325 321 223 238 239 224 213 231
-6 58 56 23 44 55 -15 -9 10 38 53 77 55 50 17 95 72 56 69 143 139 94 136 156 141 151 171 115 112 155 190 222 280 310 316 322 311 329 309 300 285 267 256 251
-11 35 21 15 59 53 62 33 82 69 69 62 51 57 10 56 152 129 81 107 166 176 171 160 167 203 190 196 189 181 240 235 285 293 302 312 351 368 387 349 316 314 324 315
23 24 24 12 19 35 66 107 75 67 83 20 62 66 -23 -37 17 60 104 163 252 285 293 280 284 306 285 266 240 256 270 261 298 278 290 289 357 426 370 393 405 377 371 361
22 -28 14 16 43 23 45 49 70 26 40 45 66 25 17 14 10 -4 -12 40 110 130 286 331 327 369 313 312 278 285 317 347 307 228 260 354 308 366 403 451 469 441 443 447
18 -20 44 45 62 48 36 67 39 89 76 71 67 71 44 37 12 10 22 10 33 86 123 167 277 330 306 292 307 324 359 358 331 273 378 450 407 422 452 459 475 508 489 485
8 -2 48 84 74 51 57 45 87 93 72 52 69 67 14 30 27 45 54 17 -10 2 32 61 110 211 275 276 273 307 330 372 355 357 340 349 392 452 498 567 548 519 536 513
91 25 5 86 61 68 92 97 110 99 109 71 47 47 57 13 17 30 35 26 8 1 22 44 60 93 174 198 209 261 296 350 371 387 363 341 379 436 470 498 503 532 536 437
58 15 -38 14 76 79 67 61 107 129 121 152 98 82 69 38 17 40 55 14 29 28 26 35 39 37 73 103 109 128 213 309 335 349 403 378 408 414 431 451 463 468 428 419
79 39 -52 4 52 74 29 68 157 184 196 139 124 91 53 40 31 22 39 42 34 40 44 34 58 70 94 164 157 216 212 221 304 382 413 463 444 428 428 453 413 413 445 440
161 121 77 24 72 91 80 123 131 141 136 93 114 39 4 -4 37 29 41 53 60 47 29 51 64 76 130 156 166 174 204 283 354 394 410 446 431 431 372 369 434 451 456 442
115 49 108 110 81 102 88 98 110 121 111 107 79 24 -15 20 50 61 45 79 98 98 84 70 69 82 101 115 145 161 218 301 380 380 347 324 374 355 378 404 441 461 455 466
161 83 109 185 194 138 131 94 96 101 122 111 97 55 61 83 83 94 126 175 207 220 235 219 183 140 117 82 103 153 227 311 378 387 355 340 321 382 398 448 460 455 472 522
168 154 126 83 153 163 84 120 141 153 194 183 158 88 146 150 150 137 197 232 259 276 284 269 236 212 205 155 113 118 171 231 266 277 286 324 395 454 472 499 579 663 718 698
258 258 179 106 199 61 117 154 156 163 145 160 178 156 197 221 253 307 305 279 296 260 237 215 179 173 185 155 152 143 148 183 227 258 296 352 411 424 466 592 695 685 712 859
206 235 195 154 141 155 150 188 182 146 83 107 131 204 295 334 393 372 276 245 187 145 112 104 123 145 177 173 134 152 187 214 280 317 352 353 382 462 581 701 711 799 980 441
203 192 179 213 169 142 118 138 212 219 128 132 158 162 188 191 205 138 137 136 133 118 135 168 193 202 205 155 120 150 179 236 269 282 305 350 432 535 494 632 613 394 234 201
266 244 193 259 195 172 126 154 206 238 119 210 193 134 121 112 108 127 125 148 154 176 187 195 222 210 179 163 161 180 186 216 199 240 259 232 212 195 185 158 138 144 149 157
279 267 236 270 233 173 210 315 245 135 108 167 179 151 152 158 175 175 183 183 181 207 221 208 213 199 163 155 198 232 228 158 170 159 161 168 161 160 164 144 128 114 116 117
247 221 197 207 173 189 156 172 113 113 109 100 182 141 198 219 180 180 189 212 230 227 239 214 204 237 241 242 219 232 181 176 176 181 182 179 152 124 109 108 104 113 118 136
270 256 247 245 182 164 126 107 79 89 80 147 146 181 187 246 223 246 265 262 267 263 272 263 291 304 300 283 275 241 201 173 176 193 187 168 158 144 132 123 122 125 132 149
242 303 241 220 194 157 81 79 89 133 187 237 257 235 269 330 297 294 305 313 302 308 320 313 318 301 292 287 303 243 194 169 190 183 175 161 136 127 120 116 110 124 129 143
278 225 290 219 150 182 103 135 166 215 228 244 347 356 329 340 346 349 362 344 345 368 345 347 324 315 305 302 267 237 203 175 164 155 131 112 103 101 95 90 87 88 86 105
Wind_Speed
27 23 15 37 17 30 35 39 37 37 43 35 49 27 27 32 37 38 41 47 52 55 57 56 55 54 54 52 48 37 30 31 29 24 20 17 18 15 13 12 12 12 14 15
27 25 5 26 32 34 37 34 36 36 36 32 15 39 26 34 37 41 44 51 54 53 56 57 55 53 52 48 45 36 31 28 28 27 15 5 9 9 14 13 12 11 12 14
21 18 30 23 35 33 37 32 34 42 35 32 29 44 29 25 51 53 55 56 54 53 52 56 52 53 47 41 38 33 30 24 20 12 3 16 17 16 10 9 8 9 11 14
14 21 25 43 35 45 36 34 42 41 31 32 34 38 20 17 29 52 51 52 54 51 52 47 39 38 35 35 27 24 19 19 18 12 8 8 6 4 4 2 4 8 11 15
16 28 41 36 50 41 49 40 41 38 38 33 28 32 29 26 35 53 52 52 44 45 44 43 41 36 29 26 27 20 17 18 18 24 16 12 10 5 5 4 5 9 13 17
2 37 38 52 45 40 29 43 40 36 37 41 39 28 29 29 32 50 57 52 43 40 45 36 20 14 20 18 21 24 23 29 24 27 22 20 16 9 5 5 9 12 15 18
15 29 40 33 25 26 31 40 41 40 41 43 35 39 49 51 49 54 53 41 42 38 29 30 27 23 20 30 31 28 26 25 22 23 25 20 14 13 13 11 12 16 18 22
5 8 34 29 30 32 31 21 32 38 41 45 37 43 48 49 52 58 56 51 18 36 29 39 36 29 28 25 31 29 27 24 22 22 26 17 16 16 16 17 15 17 21 23
3 3 31 29 26 25 28 30 28 33 41 49 46 52 59 48 50 44 46 42 13 4 16 27 29 32 31 29 35 36 25 24 21 23 18 19 18 20 21 20 20 22 20 20
7 7 29 33 31 34 38 16 32 37 43 50 40 45 52 56 47 42 41 39 35 25 6 8 19 20 25 30 25 19 21 24 23 21 18 18 18 19 19 19 21 20 20 23
5 7 15 30 30 32 29 33 36 35 39 50 57 49 32 47 40 45 44 41 34 30 19 8 5 11 15 10 14 15 14 14 16 17 19 19 21 21 19 22 20 20 20 20
8 4 15 18 31 35 34 36 33 40 44 46 55 41 43 39 39 49 46 43 41 34 27 18 9 4 3 9 8 10 13 14 17 18 20 22 24 20 19 19 19 19 22 23
6 11 18 29 44 35 35 43 43 39 38 35 53 51 49 44 38 55 45 49 47 43 30 23 15 8 12 24 19 22 21 19 21 25 25 27 25 22 22 22 21 22 23 27
2 11 17 36 34 46 51 47 37 36 42 50 22 69 68 67 63 58 49 52 54 42 36 29 29 32 32 28 25 28 26 26 27 28 28 27 26 24 23 23 24 24 25 24
6 11 15 30 40 37 41 49 45 55 50 37 38 66 68 63 51 48 49 37 37 40 40 41 42 37 33 32 31 28 30 31 30 30 31 31 27 23 26 25 26 26 25 26
16 17 18 23 36 30 35 40 43 48 48 52 39 67 52 47 41 37 32 30 30 33 36 39 40 41 42 39 37 33 31 31 30 31 29 26 26 28 29 29 29 28 29 30
18 14 17 14 36 38 29 28 41 55 48 46 45 62 44 42 39 35 25 25 27 31 35 38 42 45 49 52 50 48 44 39 36 34 31 28 28 28 29 26 26 28 28 31
21 18 27 25 34 27 31 44 42 44 56 49 58 55 42 30 29 30 29 24 25 29 34 39 43 48 54 56 56 53 48 41 36 36 34 31 30 30 28 28 30 33 33 36
31 22 27 24 27 55 48 38 41 36 43 40 43 38 21 13 20 30 29 27 27 31 35 40 46 51 54 56 53 51 50 45 41 39 37 34 31 30 29 29 33 38 44 51
27 30 30 33 36 40 54 30 30 33 36 30 23 9 3 9 19 22 20 25 29 33 39 44 47 49 52 53 50 50 49 46 43 39 36 35 33 33 34 37 43 48 50 54
33 36 31 39 48 60 38 38 20 32 44 15 7 4 2 15 24 14 16 26 31 36 39 41 45 48 49 49 48 49 47 45 40 37 36 36 37 38 43 47 49 51 55 56
33 33 36 43 50 62 30 25 27 34 35 6 5 5 7 15 15 17 22 27 32 35 38 40 42 46 47 46 46 46 46 42 40 40 41 43 47 50 50 51 51 51 54 59
45 38 43 39 43 41 22 27 15 22 16 3 8 2 1 6 14 16 21 25 29 32 35 37 39 42 46 47 46 46 46 44 44 45 48 51 53 53 53 56 60 62 63 66
46 39 47 43 44 37 30 21 22 15 6 3 2 6 4 7 10 15 19 23 27 31 34 35 38 44 47 48 49 48 47 47 48 51 54 57 60 61 62 62 64 66 69 73
44 32 41 51 46 37 32 21 16 14 11 8 9 5 3 6 11 14 18 22 26 29 33 35 40 43 47 48 50 50 50 50 53 56 59 63 65 67 69 68 68 71 71 72
41 39 37 48 33 29 26 16 14 11 12 11 6 11 13 10 12 14 19 22 25 30 33 37 41 43 45 46 48 51 53 54 57 60 63 67 70 72 73 76 80 73 75 78
Wind_Direction
64 21 60 155 332 285 261 245 236 255 261 273 235 301 125 127 138 140 147 152 164 171 178 172 163 160 162 161 158 144 134 132 130 122 112 109 115 107 77 29 38 62 63 53
61 120 93 285 268 262 247 252 256 259 285 273 224 183 135 147 152 156 155 166 175 177 185 172 168 163 163 159 159 151 151 147 147 146 130 87 106 340 344 4 25 53 50 35
102 81 308 304 263 268 255 259 271 270 272 278 294 260 153 146 192 193 193 193 187 180 174 178 170 172 167 163 160 159 159 157 153 147 276 298 309 322 345 357 6 17 16 15
84 136 198 273 278 247 252 272 280 274 286 283 283 297 144 147 166 198 187 186 187 183 183 176 167 168 167 167 162 163 163 167 170 178 203 187 196 207 280 321 353 353 358 360
75 326 281 293 256 256 255 278 286 269 264 292 316 315 332 301 185 204 200 195 189 188 183 181 181 179 175 173 172 175 179 179 182 177 188 198 212 241 308 301 302 328 338 343
85 301 309 272 267 267 285 279 287 288 289 285 290 322 331 335 189 209 213 205 198 194 194 195 209 229 202 199 191 186 186 186 187 188 189 196 205 222 251 272 286 297 314 327
327 307 292 296 274 285 284 277 280 285 284 287 307 301 289 257 240 232 226 202 204 203 205 203 207 219 230 200 196 195 195 198 203 209 203 208 220 228 236 252 280 282 296 311
151 148 290 297 284 283 286 298 291 295 295 296 312 304 303 317 309 273 240 227 207 203 204 200 205 212 214 215 201 199 203 213 212 219 220 236 247 254 258 259 271 273 289 304
60 180 294 284 288 282 285 290 304 305 305 298 307 303 301 312 315 316 296 302 0 319 187 194 199 199 199 198 199 201 211 215 220 220 241 246 249 253 254 266 278 288 296 305
193 345 289 281 282 282 279 300 300 305 305 302 317 316 301 301 315 317 310 315 325 342 69 163 176 183 188 194 201 211 221 220 229 239 251 256 268 275 276 276 277 286 299 309
193 238 292 288 279 275 286 289 297 309 309 304 305 315 331 315 318 304 303 317 336 329 349 10 131 158 175 194 197 207 227 245 254 264 277 284 288 288 283 284 281 286 297 305
185 284 217 272 287 288 290 292 299 297 305 305 301 315 319 323 315 291 306 316 318 326 332 336 345 20 145 181 292 272 290 275 274 281 290 290 302 299 293 285 283 286 295 307
195 258 209 270 279 290 289 293 294 301 309 303 302 308 311 311 320 292 308 310 307 307 322 321 329 325 309 309 302 305 305 300 301 301 298 302 295 290 281 281 283 290 301 309
221 269 217 209 272 282 282 284 288 296 299 301 306 285 277 275 290 293 309 306 297 302 310 317 319 313 313 315 312 311 309 308 307 304 300 293 287 283 283 285 290 295 302 308
247 276 260 280 282 286 287 283 288 288 294 292 308 279 271 296 309 310 311 320 311 301 307 310 313 320 323 322 321 318 317 314 311 308 302 299 299 292 295 292 293 296 300 304
283 300 296 283 284 288 291 292 293 293 295 295 304 284 306 315 324 324 326 328 323 320 322 325 328 330 331 332 332 332 329 325 322 316 308 304 300 300 301 300 302 305 308 314
262 267 287 252 288 293 279 287 294 294 295 295 292 292 305 310 318 324 329 332 332 332 332 332 334 335 334 333 337 336 335 334 331 328 325 318 314 311 309 305 308 310 311 319
260 260 284 285 291 229 290 304 306 298 295 294 294 295 297 305 322 326 324 331 336 340 341 340 339 336 336 338 339 341 342 342 341 339 337 335 331 327 325 323 323 324 321 316
273 261 278 279 278 290 301 310 310 309 306 307 302 299 299 315 324 318 323 331 337 340 344 343 341 341 342 345 349 350 349 349 347 344 343 343 342 340 338 333 328 325 324 317
277 275 268 291 288 291 305 315 316 316 302 312 315 308 281 316 308 314 331 339 342 346 343 343 345 348 349 350 355 356 355 355 355 357 357 357 357 352 346 335 329 326 322 319
267 272 267 281 288 294 311 321 328 299 312 311 271 214 211 310 317 342 348 342 345 345 347 351 353 352 354 356 359 360 2 3 8 9 5 0 355 346 337 330 327 325 324 324
255 262 274 285 289 293 316 321 296 311 324 305 211 215 291 324 343 343 339 340 343 346 353 356 358 359 1 4 7 7 7 9 7 2 356 351 345 340 338 335 334 334 331 328
265 269 275 278 290 306 320 318 312 324 331 116 148 193 325 358 341 348 347 349 352 356 1 3 6 8 6 5 5 3 2 1 358 355 352 348 345 343 341 337 334 332 331 328
273 276 277 285 292 300 309 313 320 328 0 82 103 125 115 3 2 357 356 356 358 1 2 7 6 1 359 1 1 0 359 358 356 353 350 347 344 342 341 339 337 335 332 329
276 270 278 284 293 298 299 301 308 316 325 333 333 338 354 11 357 358 358 358 359 360 1 2 359 358 356 360 360 360 358 357 354 351 348 345 343 341 339 339 338 335 333 331
270 274 273 285 284 282 296 290 296 296 302 305 308 325 335 342 347 357 354 356 357 357 358 357 356 356 358 1 0 358 357 355 351 347 345 343 341 340 339 337 335 336 334 333